This is the latest recevied weather packets stored in our database for station/object EA5FOG-11. If no packets are shown the sender has not sent any weather packets the latest 10 day(s).
| Time | Temp. | Humidity | Pressure | Rain* | Wind** | Luminosity | Snow |
|---|---|---|---|---|---|---|---|
| 1788543760 | 31.67° C | 42% | 962 hPa | - | - | - | - |
| 1788542860 | 34.44° C | 40% | 961.8 hPa | - | - | - | - |
| 1788541959 | 34.44° C | 39% | 961.8 hPa | - | - | - | - |
| 1788541058 | 35° C | 38% | 961.7 hPa | - | - | - | - |
| 1788540157 | 38.89° C | 36% | 961.5 hPa | - | - | - | - |
| 1788539256 | 40° C | 35% | 961.6 hPa | - | - | - | - |
| 1788538356 | 40.56° C | 35% | 961.6 hPa | - | - | - | - |
| 1788537455 | 38.33° C | 35% | 961.4 hPa | - | - | - | - |
| 1788536554 | 37.22° C | 36% | 961.5 hPa | - | - | - | - |
| 1788535653 | 40° C | 34% | 961.5 hPa | - | - | - | - |
| 1788534752 | 40° C | 34% | 961.6 hPa | - | - | - | - |
| 1788533852 | 40.56° C | 33% | 961.5 hPa | - | - | - | - |
| 1788532951 | 42.22° C | 32% | 961.6 hPa | - | - | - | - |
| 1788532050 | 40.56° C | 33% | 961.7 hPa | - | - | - | - |
| 1788531149 | 41.11° C | 33% | 961.8 hPa | - | - | - | - |
| 1788530248 | 43.33° C | 32% | 961.9 hPa | - | - | - | - |
| 1788529348 | 42.78° C | 32% | 962.1 hPa | - | - | - | - |
| 1788527564 | 42.78° C | 33% | 962.1 hPa | - | - | - | - |
| 1788526664 | 42.22° C | 33% | 962.4 hPa | - | - | - | - |
| 1788525763 | 41.67° C | 34% | 962.5 hPa | - | - | - | - |
| 1788524862 | 42.78° C | 33% | 962.6 hPa | - | - | - | - |
| 1788523961 | 42.22° C | 33% | 962.8 hPa | - | - | - | - |
| 1788523060 | 41.67° C | 34% | 962.8 hPa | - | - | - | - |
| 1788522160 | 41.67° C | 34% | 963.1 hPa | - | - | - | - |
| 1788521259 | 41.67° C | 35% | 963.2 hPa | - | - | - | - |
* Rain since midnight (hover to see other rain measurements)
** Current wind speed in m/s (hover to see current wind gust speed)